Погода в Жиганске

Погода в Жиганске : погода сейчас, прогноз погоды и архив. Всё, что Вы хотите узнать о погоде в Жиганске!

Хотите узнать прогноз погоды в Жиганске? Тогда Вам сюда: Погода в Жиганске

Поиск расширенной информации на нашем сайте:

Полезная информация: стоматология в москве

Другие новости

Новости СМИ2

Главная страница сайта

Новости сайта

02.10.2013

Напоминаем, что на нашем новом сайте вы можете получить высокодетализированные прогнозы погоды по пунктам России, СНГ и мира (включающие важные для авиации метеовеличины, такие как направление и скорость ветра, видимость, явления погоды, количество и форма облачности, нижняя и верхняя граница облачности), а также ознакомиться с разнообразными материалами по авиационной метеорологии и подборкой полезных ссылок на эту тему.

Сайт Метеоцентр.Азия посвящён разработке технологий оптимизации авиаметеорологического обслуживания, включая проектирование и перспективное создание нескольких автоматизированных авиаметеорологических систем:
- система выпуска высокодетальных прогностических карт явлений погоды для нижнего воздушного пространства по России и ближнему зарубежью;
- система верификации прогнозов TAF (выпускаемых синоптиками официальных АМСГ РФ и ближнего зарубежья) и AUTOTAF (выпускаемых сайтом Метеоцентр.Азия) - выявление ошибок, онлайн-сопоставление с фактической погодой METAR, автоматическое внесение коррективов в прогнозы при резком отклонении фактической погоды от прогноза, подсчёт оправдываемости прогнозов по элементам и в целом;
- система обработки, анализа и отображения авиаметеорологической информации для применения провайдерами метеорологической информации.

Рекомендуем: Портал о строительстве http://geos-inform.com

Погода в Жиганске - сегодня

Время (UTC), дата Ветер
(°,м/с) 
Видим.   Явления Облачность Т
(°С)
Тd
(°С)
f(%) Тe
(°С)
Pmin
(гПа)
dP
(гПа)
Po
(мм)
O2
(г/м3)
Тmin Tmax R s Состояние
почвы
06 27.03.17 170 (Ю) 5{16}  20000 м    10/0 средняя, верхняя 
[As op|Cs]
+0.4 -6.2 61 -3  1000.4  -1.6  742  299           
09 27.03.17 190 (Ю) 5-10{13}  20000 м    10/0 средняя 
[Sc|Ac und]
+2.4 -7.5 48 1000.7  0.4  742  297           
12 27.03.17 230 (ЮЗ) 20000 м    10/5 1000 м средняя, верхняя 
[Sc|Ac trans|Ci sp]
-0.8 -5 73 -3  1004.4  3.5  745  301    +2.4       
15 27.03.17 240 (ЮЗ) 4000 м  слаб. снег  10/5 1000 м средняя 
[Sc|As op]
-1.6 -2.1 96 -4  1006.7  2.3  746  303           
18 27.03.17 340 (С) 20000 м  слаб. снег{ливн. осадки}  10/3 1000 м верхняя 
[Sc|Cs]
-4.6 -9.4 69 -7  1010.3  3.3  749  308           
21 27.03.17 340 (С) 20000 м  {снег}  3/0 верхняя 
[Ci sp]
-10.3 -16.6 60 -14  1015.4  4.8  752  316           
00 28.03.17 320 (СЗ) 20000 м  {снег}  ясно 
-11.1 -17.3 60 -14  1018.7  3.3  755  318  -14.2    0.7  42  равномерный
сухой снег
100% 
03 28.03.17 100 (В) 20000 м    ясно 
-6.7 -17.1 43 -6  1020.6  756  314           
06 28.03.17 280 (З) 20000 м    3/0 верхняя 
[Ci fib]
-4.2 -17 36 -5  1021.5  757  311           
09 28.03.17 160 (Ю) 20000 м    1/0 верхняя 
[Ci fib]
-5.2 -16.2 42 -5  1022  0.5  758  312           
12 28.03.17 180 (Ю) 20000 м    3/0 верхняя 
[Ci fib]
-9.3 -18.2 48 -11  1022.8  0.6  758  318    -4.2       
15 28.03.17 200 (Ю) 20000 м    3/0 верхняя 
[Ci fib]
-11 -18.3 55 -13  1022.3  -0.5  758  320           
18 28.03.17 140 (ЮВ) 20000 м    3/0 верхняя 
[Ci sp]
-14.5 -18.8 70 -19  1021.9  -0.6  757  324           
21 28.03.17 160 (Ю) 20000 м    3/0 верхняя 
[Ci fib]
-16.4 -19 80 -20  1020.6  -1.4  756  326           
00 29.03.17 170 (Ю) 20000 м    10/0 верхняя 
[Ci sp]
-12.8 -16.3 75 -16  1019.3  -1.1  755  321  -16.7      42  равномерный
сухой снег
100% 
03 29.03.17 160 (Ю) 20000 м    10/0 средняя, верхняя 
[Ac trans|Ci sp]
-8.2 -13.9 63 -12  1017.8  -1.3  754  315           
06 29.03.17 170 (Ю) 20000 м    10/6 1500 м верхняя 
[Sc|Ci sp]
-3.2 -10.5 57 -6  1016.4  -1.1  753  308           
09 29.03.17 160 (Ю) 20000 м    10/8 1080 м верхняя 
[Sc|Cs]
-1.6 -8.5 59 -4  1015.9  -0.4  753  306           
12 29.03.17 160 (Ю) 20000 м    10/8 1170 м средняя 
[Sc|As op]
-3.1 -7.7 70 -5  1016.4  0.4  753  308    -1.6       
15 29.03.17 160 (Ю) 20000 м    10/10 1320 м 
[Sc]
-3.7 -7 78 -5  1015.6  -0.8  753  308           
18 29.03.17 150 (ЮВ) 20000 м    10/10 1350 м 
[Sc]
-4 -7.3 78 -6  1014.6  -1  752  308           
21 29.03.17 160 (Ю) 20000 м    10/6 1500 м средняя 
[Sc|Ac und]
-4.5 -7.6 79 -7  1013.6  -1.1  751  309           
00 30.03.17 180 (Ю) 4000 м  слаб. снег  10/8 240 м средняя 
[Sc|As op]
-4.8 -6.1 91 -7  1012.9  -0.7  751  309  -5.3    0.4  42  равномерный
сухой снег
100% 
03 30.03.17 170 (Ю) 4{10}  20000 м  в посл. час снег  10/6 900 м средняя 
[St|As op]
-2.3 -4.8 83 -5  1010  -2.7  749  305           
06 30.03.17 190 (Ю) 5-11{12}  4000 м  слаб. ливневой снег  10/6 600 м кучево-дожд., средняя 
[Cb cap|As op]
-1.3 -4.3 80 -5  1007  -2.9  747  303           
Время (UTC), дата Ветер
(°,м/с) 
Видим.   Явления Облачность Т
(°С)
Тd
(°С)
f(%) Тe
(°С)
Pmin
(гПа)
dP
(гПа)
Po
(мм)
O2
(г/м3)
Тmin Tmax R s Состояние
почвы

Для получения пояснительной информации подведите курсор к названию столбца.

ПОГОДА в Жиганске - архив

Всё, что Вы хотите узнать о погоде в Жиганске - удобно и подробно!

Выберите нужную дату (начиная с 1 января 2015* года) и нажмите кнопку "Найти".
Будут отображены архивные сводки погоды по пункту Жиганск, начиная с указанной даты.


Отображать данные в формате CSV (для использования в таблицах Excel)


Внимание! Наш архив погоды предназначен исключительно для личного некоммерческого использования в познавательных целях. Если Вам необходимы официальные справки о состоянии погоды (для производственных, юридических, коммерческих и т.п. целей), обращайтесь в органы Росгидромета.

*Примечание: данная дата относится к архиву по метеостанциям СССР (Россия, СНГ, Балтия).
Архив по метеостанциям Зарубежной Европы и Азии (кроме Китая) хранится 10 дней, по другим регионам земного шара (Китай, Африка, Америка, Австралия, Океания) - 1 день.

Жиганск - район местоположения метеостанции


Название, широта, долгота, высота метеостанции:
Жиганск 66.8°ш. 123.4°д. 92 м над ур. моря [Российская Федерация]

Дополнительная информация

В oтличие oт бoльшинства пoгoдных сайтoв мы публикуем пoдрoбную метеoинфoрмацию в детальнoм прoфессиoнальнoм фoрмате.

Характеристики температуры и влажнoсти вoздуха измеряются на высoте 2 м в тени вдали oт зданий и деревьев.
Скoрoсть ветра измеряется на высoте 10 м (на урoвне рoста челoвека скoрoсть ветра ниже в 1.5-2 раза). Если метеoстанция нахoдится в гoрoде или в лесу, тo скoрoсть ветра занижена на 2-4 м/с пo сравнению с oткрытым местoм. Скoрoсть ветра над акватoриями крупных рек и oзёр, а также на вершинах хoлмoв на 2-5 м/с выше, чем в oбычных услoвиях.
Атмoсфернoе давление в разных тoчках местнoсти мoжет значительнo oтличаться oт давления на метеoстанции, в зависимoсти oт услoвий рельефа (при пoдъёме на 10 м давление пoнижается примернo на 1 мм рт.ст.).